Weather Roundup
Issued by NWS Springfield, MO

Home | Current Version | Previous Version | Text Only | Print | Product List | Glossary On
Versions: 1 2 3 4 5 6 7 8 9 10 11 12 13 14 15 16 17 18 19 20 21 22 23 24 25 26 27 28 29 30 31 32 33 34 35 36 37 38 39 40 41 42 43 44 45 46 47 48 49 50
093
NZUS99 KSGF 301107
HRRSGF

HOURLY WEATHER
NATIONAL WEATHER SERVICE SPRINGFIELD MO
600 AM CDT SAT JUL 30 2016

......SGF CWA......

CITY           SKY/WX    TMP DP  RH WIND       PRES   REMARKS
SPRINGFIELD    CLEAR     68  66  93 CALM      30.00R FOG
JOPLIN         CLEAR     68  67  96 CALM      30.00R
WEST PLAINS    CLOUDY    68  66  93 CALM      30.02R
ROLLA          CLEAR     65  64  97 CALM      29.99R
OSAGE BEACH    FOG       68  68 100 CALM      30.00S VSB<1/4
BRANSON        MOCLDY    68  68 100 CALM      30.02R FOG

......SURROUNDING SGF CWA......

CITY           SKY/WX    TMP DP  RH WIND       PRES   REMARKS
CHANUTE        CLEAR     67  66  97 CALM      29.99S FOG
PARSONS        CLEAR     68  67  96 NE3       30.00R
COFFEYVILLE    CLEAR     69  68  96 CALM      29.99R
EMPORIA        CLEAR     67  66  97 CALM      30.00F
GROVE OK       CLEAR     68  68 100 CALM      29.99F FOG
ROGERS AR      CLEAR     69  68  96 CALM      30.02R
SILOAM SPRINGS CLEAR     68  61  77 CALM      30.02R
HARRISON AR    CLEAR     68  68 100 CALM      30.02R FOG
NEAR YELLVILLE CLOUDY    70  66  88 CALM      29.97R VSB 1

......KANSAS AND MISSOURI......

CITY           SKY/WX    TMP DP  RH WIND       PRES   REMARKS
KANSAS CTY INT PTCLDY    63  60  90 NE5       30.00F
DOWNTOWN KC    CLEAR     68  63  84 N3        30.00R
COLUMBIA       CLOUDY    69  66  90 CALM      30.00R
SEDALIA        CLEAR     65  63  93 NW5       30.01R
ST JOSEPH      MOCLDY    61  60  97 N3        30.02R FOG
ST LOUIS       PTCLDY    72  67  84 W5        29.97R
SPIRIT OF STL  CLEAR     67  67 100 SW3       29.96R
KIRKSVILLE     CLOUDY    66  64  93 NW3       30.00S
WICHITA        MOCLDY    73  69  87 SE5       29.99S
TOPEKA         CLEAR     64  62  93 N3        30.00S
OLATHE         CLEAR     66  62  87 NE6       30.01S

......TENNESSEE......

CITY           SKY/WX    TMP DP  RH WIND       PRES   REMARKS
MEMPHIS        CLOUDY    74  71  91 CALM      29.98R
NASHVILLE      CLOUDY    74  71  91 CALM      30.00R

......ARKANSAS.......

CITY           SKY/WX    TMP DP  RH WIND       PRES   REMARKS
FAYETTEVILLE   CLEAR     69  69 100 S3        30.01R
FT SMITH       MOCLDY    73  69  87 CALM      29.97S
LITTLE ROCK    MOCLDY    74  71  91 SW7       29.98R

......OKLAHOMA.......

CITY           SKY/WX    TMP DP  RH WIND       PRES   REMARKS
TULSA          MOCLDY    73  69  87 CALM      29.96S
PONCA CITY     CLOUDY    73  66  78 SE6       29.97F
MCALESTER      MOCLDY    74  67  78 S5        29.98R
OKLAHOMA CITY  PTCLDY    73  70  90 S6        29.96S

......IOWA............

CITY           SKY/WX    TMP DP  RH WIND       PRES   REMARKS
DES MOINES     DRIZZLE   68  65  90 NW6       30.00R
QUAD CITIES    CLOUDY    71  65  81 CALM      29.96S

......ILLINOIS........

CITY           SKY/WX    TMP DP  RH WIND       PRES   REMARKS
QUINCY         FOG       65  65 100 NW6       29.97R VSB 1/4
CHICAGO        CLOUDY    71  65  81 NE10      29.95R




USA.gov is the U.S. government's official web portal to all federal, state and local government web resources and services.